Location: Detroit
(42.3310°N, 83.0460°W)
Time: 04:23:10
(UTC-05:00)

Tiros 1 - Visible Passes

Search period start: 28 January 2023 00:00
Search period end: 07 February 2023 00:00
Orbit: 628 x 662 km, 48.4° (Epoch: 28 January)

Date Brightness Start Highest point End Pass type
(mag) Time Alt. Az. Time Alt. Az. Time Alt. Az.
28 Jan 9.3 04:48:34 23° NE 04:48:34 23° NE 04:50:26 10° ENE visible
28 Jan 8.0 06:26:11 23° NW 06:28:38 40° N 06:33:07 10° ENE visible
29 Jan 8.5 05:12:50 33° NNE 05:12:50 33° NNE 05:16:00 10° ENE visible
29 Jan 7.7 06:50:27 14° WNW 06:54:20 48° NNE 06:58:57 10° E visible
30 Jan 7.9 05:37:06 39° N 05:37:17 39° N 05:41:44 10° ENE visible
30 Jan 7.3 07:15:13 10° WNW 07:19:55 72° NNE 07:24:40 10° ESE visible
31 Jan 9.9 04:23:45 15° ENE 04:23:45 15° ENE 04:24:39 10° ENE visible
31 Jan 7.8 06:01:22 33° NW 06:02:59 47° NNE 06:07:34 10° E visible
01 Feb 9.1 04:48:02 25° NE 04:48:02 25° NE 04:50:22 10° ENE visible
01 Feb 7.3 06:25:40 22° NW 06:28:36 67° NNE 06:33:19 10° ESE visible
02 Feb 8.1 05:12:21 42° NE 05:12:21 42° NE 05:16:11 10° E visible
02 Feb 7.2 06:49:58 14° WNW 06:54:02 72° SSW 06:58:45 10° SE visible
03 Feb 7.3 05:36:43 58° NNW 05:37:15 63° NNE 05:41:57 10° ESE visible
04 Feb 9.7 04:23:29 18° ENE 04:23:29 18° ENE 04:24:47 10° E visible
04 Feb 7.1 06:01:07 41° WNW 06:02:43 78° SSW 06:07:26 10° SE visible
05 Feb 8.8 04:47:58 31° E 04:47:58 31° E 04:50:33 10° E visible
05 Feb 7.8 06:25:35 23° W 06:27:59 40° SW 06:32:23 10° SSE visible
06 Feb 7.7 05:12:30 52° SE 05:12:30 52° SE 05:16:06 10° ESE visible
06 Feb 8.7 06:50:08 12° W 06:53:03 20° SW 06:56:26 10° S visible
